Weather History for Pinedale, WY

Change the Weather History Date:

Tuesday, January 1, 2013

  Actual Average (KBPI) Record (KBPI)
Temperature  
Mean Temperature -2 °F 11 °F  
Max Temperature 17 °F 26 °F 45 °F (1981)
Min Temperature -22 °F -2 °F -31 °F (2011)
Degree Days  
Heating Degree Days 68 54  
Month to date heating degree days 54  
Since 1 July heating degree days 4493  
Cooling Degree Days 0 0  
Month to date cooling degree days 0  
Year to date cooling degree days 0  
Moisture  
Dew Point -8 °F    
Average Humidity 78    
Maximum Humidity 92    
Minimum Humidity 68    
Precipitation  
Precipitation 0.00 in 0.01 in 0.09 in (2005)
Month to date precipitation 0.01  
Year to date precipitation 0.01  
Sea Level Pressure  
Sea Level Pressure 30.11 in    
Wind  
Wind Speed 4 mph (NNW)    
Max Wind Speed 25 mph    
Max Gust Speed 33 mph    
Visibility 9 miles    
Events Snow    
T = Trace of Precipitation, MM = Missing Value Source: NWS Daily Summary

Daily Weather History Graph

Daily Weather History Graph

Search for Another Location

Airport:

Trip Planner

Search our weather history database for the weather conditions in past years. The results will help you decide how hot, cold, wet, or windy it might be!

Date:

Astronomy

Jan. 01, 2013 Rise Set
Actual Time 7:49 AM MST 4:56 PM MST
Civil Twilight 7:17 AM MST 5:28 PM MST
Nautical Twilight 6:42 AM MST 6:03 PM MST
Astronomical Twilight 6:07 AM MST 6:38 PM MST
Moon 9:37 PM MST (1/1) 9:57 AM MST (1/1)
Length of Visible Light 10h 10m
Length of Day
9h 06m
Waning Gibbous, 83% of the Moon is Illuminated
Jan 1
Waning Gibbous
Jan 4
Last Quarter
Jan 11
New
Jan 18
First Quarter
Jan 26
Full

Hourly Weather History & Observations

Time (MST) Temp. Windchill Dew Point Humidity Pressure Visibility Wind Dir Wind Speed Gust Speed Precip Events Conditions
12:15 AM -11.2 °F - -14.8 °F 84% 30.01 in 10.0 mi Calm Calm - N/A   Clear
12:35 AM -9.4 °F - -14.8 °F 77% 30.02 in 10.0 mi Calm Calm - N/A   Clear
1:15 AM -14.8 °F -27.2 °F -18.4 °F 84% 30.03 in 10.0 mi WNW 4.6 mph - N/A   Clear
1:35 AM -14.8 °F -24.8 °F -18.4 °F 84% 30.05 in 10.0 mi NW 3.5 mph - N/A   Clear
1:55 AM -16.6 °F - -22.0 °F 76% 30.05 in 10.0 mi Calm Calm - N/A   Clear
2:15 AM -14.8 °F -27.2 °F -20.2 °F 77% 30.06 in 10.0 mi West 4.6 mph - N/A   Clear
2:35 AM -18.4 °F -31.4 °F -23.8 °F 76% 30.06 in 10.0 mi NW 4.6 mph - N/A   Clear
2:55 AM -13.0 °F -22.7 °F -16.6 °F 84% 30.08 in 10.0 mi NNE 3.5 mph - N/A   Clear
3:15 AM -16.6 °F - -22.0 °F 76% 30.07 in 10.0 mi Calm Calm - N/A   Scattered Clouds
3:35 AM -16.6 °F - -22.0 °F 76% 30.07 in 10.0 mi Calm Calm - N/A   Clear
4:15 AM -14.8 °F - -18.4 °F 84% 30.08 in 10.0 mi Calm Calm - N/A   Clear
4:35 AM -16.6 °F -26.8 °F -22.0 °F 76% 30.08 in 10.0 mi West 3.5 mph - N/A   Clear
4:55 AM -16.6 °F - -22.0 °F 76% 30.09 in 10.0 mi Calm Calm - N/A   Clear
5:15 AM -18.4 °F - -23.8 °F 76% 30.09 in 10.0 mi Calm Calm - N/A   Clear
5:35 AM -18.4 °F -28.9 °F -25.6 °F 70% 30.09 in 10.0 mi NE 3.5 mph - N/A   Clear
5:55 AM -16.6 °F - -22.0 °F 76% 30.10 in 10.0 mi Calm Calm - N/A   Clear
6:15 AM -22.0 °F -35.6 °F -27.4 °F 76% 30.11 in 10.0 mi West 4.6 mph - N/A   Scattered Clouds
6:35 AM -20.2 °F -30.9 °F -25.6 °F 76% 30.12 in 10.0 mi West 3.5 mph - N/A   Scattered Clouds
6:55 AM -16.6 °F -26.8 °F -22.0 °F 76% 30.12 in 10.0 mi NNW 3.5 mph - N/A   Overcast
7:15 AM -18.4 °F - -23.8 °F 76% 30.13 in 10.0 mi Calm Calm - N/A   Overcast
7:35 AM -20.2 °F - -25.6 °F 76% 30.12 in 1.2 mi Calm Calm - N/A   Haze
7:55 AM -18.4 °F -28.9 °F -23.8 °F 76% 30.13 in 5.0 mi WNW 3.5 mph - N/A   Haze
8:15 AM -20.2 °F - -25.6 °F 76% 30.13 in 0.5 mi Calm Calm - N/A   Haze
8:35 AM -18.4 °F -28.9 °F -23.8 °F 76% 30.14 in 0.8 mi NW 3.5 mph - N/A   Haze
8:55 AM -16.6 °F - -22.0 °F 76% 30.15 in 3.0 mi Calm Calm - N/A   Haze
9:15 AM -11.2 °F - -16.6 °F 77% 30.16 in 3.0 mi Calm Calm - N/A   Haze
9:35 AM -11.2 °F -20.6 °F -16.6 °F 77% 30.17 in 7.0 mi WNW 3.5 mph - N/A   Clear
9:55 AM -7.6 °F - -13.0 °F 77% 30.18 in 1.0 mi Calm Calm - N/A Snow Light Snow
10:15 AM -5.8 °F - -9.4 °F 84% 30.18 in 10.0 mi Calm Calm - N/A   Clear
10:35 AM -2.2 °F - -5.8 °F 85% 30.18 in 10.0 mi Calm Calm - N/A   Clear
10:55 AM -0.4 °F - -5.8 °F 78% 30.18 in 4.0 mi Calm Calm - N/A Snow Light Snow
11:15 AM 3.2 °F - -0.4 °F 85% 30.16 in 5.0 mi Calm Calm - N/A Snow Light Snow
11:35 AM 1.4 °F - -0.4 °F 92% 30.17 in 10.0 mi Calm Calm - N/A   Clear
11:55 AM 3.2 °F -4.2 °F -0.4 °F 85% 30.17 in 10.0 mi North 3.5 mph - N/A   Clear
12:15 PM 5.0 °F - 1.4 °F 85% 30.15 in 10.0 mi Calm Calm - N/A   Clear
12:35 PM 8.6 °F - 5.0 °F 85% 30.14 in 10.0 mi Calm Calm - N/A   Clear
12:55 PM 10.4 °F - 5.0 °F 79% 30.13 in 10.0 mi Calm Calm - N/A   Clear
1:15 PM 8.6 °F 0.1 °F 3.2 °F 79% 30.12 in 10.0 mi East 4.6 mph - N/A   Scattered Clouds
1:35 PM 8.6 °F -2.6 °F 1.4 °F 73% 30.10 in 10.0 mi SE 6.9 mph - N/A   Clear
2:15 PM 8.6 °F -3.7 °F 1.4 °F 73% 30.08 in 10.0 mi ESE 8.1 mph - N/A   Clear
2:35 PM 8.6 °F -1.3 °F 1.4 °F 73% 30.07 in 10.0 mi SE 5.8 mph - N/A   Clear
3:15 PM 8.6 °F -3.7 °F 1.4 °F 73% 30.08 in 10.0 mi ESE 8.1 mph - N/A   Clear
3:35 PM 8.6 °F -4.7 °F 1.4 °F 73% 30.08 in 10.0 mi East 9.2 mph - N/A   Clear
3:55 PM 8.6 °F -3.7 °F 1.4 °F 73% 30.09 in 10.0 mi East 8.1 mph - N/A   Clear
4:15 PM 6.8 °F -5.9 °F -0.4 °F 72% 30.09 in 10.0 mi ESE 8.1 mph - N/A   Clear
4:35 PM 5.0 °F -2.1 °F -0.4 °F 78% 30.09 in 10.0 mi East 3.5 mph - N/A   Scattered Clouds
4:55 PM 3.2 °F -4.2 °F -2.2 °F 78% 30.09 in 10.0 mi ESE 3.5 mph - N/A   Scattered Clouds
5:15 PM 1.4 °F -12.5 °F -4.0 °F 78% 30.08 in 10.0 mi East 8.1 mph - N/A   Scattered Clouds
5:35 PM 6.8 °F -3.5 °F 1.4 °F 79% 30.09 in 10.0 mi East 5.8 mph - N/A   Scattered Clouds
5:55 PM 14.0 °F -1.4 °F 8.6 °F 79% 30.09 in 10.0 mi WNW 15.0 mph - N/A   Clear
6:15 PM 15.8 °F 1.4 °F 8.6 °F 73% 30.09 in 10.0 mi WNW 13.8 mph 23.0 mph N/A   Clear
6:35 PM 14.0 °F -2.5 °F 8.6 °F 79% 30.09 in 10.0 mi West 17.3 mph - N/A   Clear
6:55 PM 15.8 °F -0.6 °F 8.6 °F 73% 30.09 in 10.0 mi WNW 18.4 mph 25.3 mph N/A   Clear
7:15 PM 15.8 °F -2.7 °F 8.6 °F 73% 30.10 in 10.0 mi WNW 24.2 mph 28.8 mph N/A   Clear
7:35 PM 17.6 °F -0.3 °F 8.6 °F 68% 30.11 in 10.0 mi WNW 24.2 mph 31.1 mph N/A   Clear
7:55 PM 17.6 °F -0.6 °F 8.6 °F 68% 30.11 in 10.0 mi WNW 25.3 mph 31.1 mph N/A   Clear
8:15 PM 15.8 °F -2.3 °F 8.6 °F 73% 30.11 in 10.0 mi WNW 23.0 mph - N/A   Clear
8:35 PM 15.8 °F -3.1 °F 8.6 °F 73% 30.11 in 7.0 mi WNW 25.3 mph 33.4 mph N/A   Clear
8:55 PM 14.0 °F -4.3 °F 6.8 °F 73% 30.11 in 10.0 mi WNW 21.9 mph 29.9 mph N/A   Clear
9:15 PM 14.0 °F -0.2 °F 6.8 °F 73% 30.13 in 10.0 mi NW 12.7 mph - N/A   Clear
9:35 PM 8.6 °F 2.0 °F 3.2 °F 79% 30.14 in 10.0 mi ENE 3.5 mph - N/A   Clear
9:55 PM 8.6 °F -5.5 °F 1.4 °F 73% 30.15 in 10.0 mi NNE 10.4 mph - N/A   Clear
10:15 PM 6.8 °F -3.5 °F -0.4 °F 72% 30.17 in 10.0 mi East 5.8 mph - N/A   Clear
10:35 PM -0.4 °F -12.0 °F -4.0 °F 85% 30.18 in 10.0 mi ESE 5.8 mph - N/A   Clear
10:55 PM 1.4 °F -11.3 °F -0.4 °F 92% 30.18 in 10.0 mi ESE 6.9 mph - N/A   Clear
11:15 PM -0.4 °F - -4.0 °F 85% 30.19 in 10.0 mi Calm Calm - N/A   Clear
11:35 PM -2.2 °F -10.4 °F -5.8 °F 85% 30.19 in 10.0 mi West 3.5 mph - N/A   Clear
11:55 PM -5.8 °F -16.7 °F -9.4 °F 84% 30.19 in 10.0 mi WNW 4.6 mph - N/A   Clear